Location: Esterri de Aneo
(42.6284°N, 1.1223°E)
Time: 02:03:43
(UTC+00:00)

Cosmos 1933 - Pass Details

Date: 11 December 2025
Orbit: 510 x 518 km, 82.5° (Epoch: 12 January)

Event Time Altitude Azimuth Distance (km) Brightness Sun altitude
Rises 16:50:44 0° 164° (SSE) 2,627 6.9 -5.5°
Reaches altitude 10° 16:53:00 10° 154° (SSE) 1,743 5.9 -5.8°
Maximum altitude 16:56:25 31° 91° (E) 919 4.0 -6.4°
Drops below altitude 10° 16:59:50 10° 28° (NNE) 1,752 5.4 -7.0°
Enters shadow 17:02:07 - 18° (NNE) 2,642 6.4 -7.3°
